Location: Voyageurs National Park
(48.5020°N, 92.9292°W)
Time: 13:46:58
(UTC-06:00)

PCSat - Visible Passes

Search period start: 21 January 2017 00:00
Search period end: 31 January 2017 00:00
Orbit: 785 x 795 km, 67.1° (Epoch: 21 January)

Date Brightness Start Highest point End Pass type
(mag) Time Alt. Az. Time Alt. Az. Time Alt. Az.
21 Jan 12.1 04:26:23 10° N 04:26:23 10° N 04:26:38 10° N visible
21 Jan 11.8 06:08:23 10° N 06:10:14 12° N 06:12:06 10° NNE visible
22 Jan 11.9 05:37:31 10° N 05:38:57 11° N 05:40:24 10° NNE visible
23 Jan 12.0 05:06:53 10° N 05:07:40 11° N 05:08:50 10° NNE visible
23 Jan 11.6 06:49:37 10° NNW 06:53:24 19° NNE 06:57:10 10° ENE visible
24 Jan 12.1 04:36:46 10° N 04:36:46 10° N 04:37:31 10° N visible
24 Jan 11.8 06:18:51 10° NNW 06:22:13 16° NNE 06:25:33 10° ENE visible
25 Jan 11.9 05:48:07 10° NNW 05:51:00 14° NNE 05:53:54 10° NE visible
26 Jan 11.9 05:17:21 10° N 05:19:46 13° NNE 05:22:10 10° NE visible
26 Jan 11.0 07:00:04 10° NNW 07:04:56 32° NE 07:09:47 10° ESE visible
27 Jan 12.0 04:47:11 11° N 04:48:30 12° NNE 04:50:26 10° NNE visible
27 Jan 11.3 06:29:17 10° NNW 06:33:53 27° NE 06:38:26 10° E visible
28 Jan 12.1 04:17:06 11° N 04:17:13 11° N 04:18:44 10° NNE visible
28 Jan 11.5 05:58:32 10° NNW 06:02:46 22° NNE 06:07:00 10° E visible
29 Jan 12.3 03:47:02 10° NNE 03:47:02 10° NNE 03:47:07 10° NNE visible
29 Jan 11.7 05:27:47 10° NNW 05:31:38 19° NNE 05:35:28 10° ENE visible
29 Jan 10.0 07:10:39 10° NNW 07:16:05 66° NE 07:21:29 10° SE visible
30 Jan 11.9 04:57:42 12° N 05:00:28 17° NNE 05:03:52 10° ENE visible
30 Jan 10.3 06:39:49 10° NNW 06:45:09 51° NE 06:50:26 10° SE visible
